Copenhagen, Denmark

5:37 PM CEST on April 20, 2018 (GMT +0200)
Kastrup

Weather History for EKCH - August, 2013

Change the Weather History Date:

Monday, August 19, 2013

  Actual Average Record
Temperature  
Mean Temperature 59 °F -  
Max Temperature 67 °F 65 °F 82 °F (2012)
Min Temperature 51 °F 51 °F 50 °F (1998)
Degree Days  
Heating Degree Days 6    
Growing Degree Days 9 (Base 50)    
Moisture  
Dew Point 54 °F    
Average Humidity 80    
Maximum Humidity 100    
Minimum Humidity 55    
Precipitation  
Precipitation 0.00 in - - ()
Sea Level Pressure  
Sea Level Pressure 29.97 in    
Wind  
Wind Speed 5 mph ()    
Max Wind Speed 12 mph    
Max Gust Speed -    
Visibility 7.9 miles    
Events Fog    
Averages and records for this station are not official NWS values.
T = Trace of Precipitation, MM = Missing Value Source: Averaged Metar Reports

Daily Weather History Graph

Daily Weather History Graph

Search for Another Location

Airport or City:

Astronomy

Aug. 19, 2013 Rise Set
Actual Time 5:49 AM CEST 8:35 PM CEST
Civil Twilight 5:07 AM CEST 9:16 PM CEST
Nautical Twilight 4:12 AM CEST 10:11 PM CEST
Astronomical Twilight 3:00 AM CEST 11:21 PM CEST
Moon 7:16 PM CEST (8/19) 3:38 AM CEST (8/19)
Length of Visible Light 16h 09m
Length of Day
14h 45m
Waxing Gibbous, 96% of the Moon is Illuminated
Aug 19
Waxing Gibbous
Aug 21
Full
Aug 28
Last Quarter
Sep 5
New
Sep 12
First Quarter

Hourly Weather History & Observations

Time (CEST) Temp. Dew Point Humidity Pressure Visibility Wind Dir Wind Speed Gust Speed Precip Events Conditions
12:20 AM 59.0 °F 57.2 °F 94% 29.86 in 6.2 mi WSW 6.9 mph - N/A   Scattered Clouds
12:50 AM 59.0 °F 57.2 °F 94% 29.86 in - WSW 5.8 mph - N/A   Clear
1:20 AM 59.0 °F 55.4 °F 88% 29.86 in - WSW 6.9 mph - N/A   Clear
1:50 AM 57.2 °F 53.6 °F 88% 29.86 in - WSW 5.8 mph - N/A   Clear
2:00 AM 56 °F 53 °F 86% 29.88 in 9 mi West 4.6 mph - -   Clear
2:20 AM 55.4 °F 53.6 °F 94% 29.86 in - West 5.8 mph - N/A   Clear
2:50 AM 55.4 °F 53.6 °F 94% 29.89 in - West 5.8 mph - N/A   Clear
3:20 AM 55.4 °F 51.8 °F 88% 29.89 in - West 6.9 mph - N/A   Clear
3:50 AM 53.6 °F 51.8 °F 94% 29.89 in - WSW 5.8 mph - N/A   Clear
4:20 AM 53.6 °F 51.8 °F 94% 29.89 in - WSW 5.8 mph - N/A   Clear
4:50 AM 53.6 °F 51.8 °F 94% 29.89 in - WSW 4.6 mph - N/A   Clear
5:00 AM 53 °F 52 °F 93% 29.91 in 11 mi WSW 3.5 mph - -   Clear
5:20 AM 53.6 °F 51.8 °F 94% 29.89 in - WSW 3.5 mph - N/A   Clear
5:50 AM 51.8 °F 51.8 °F 100% 29.92 in 6.2 mi West 3.5 mph - N/A Fog Shallow Fog
6:20 AM 51.8 °F 51.8 °F 100% 29.92 in 6.2 mi West 3.5 mph - N/A Fog Shallow Fog
6:50 AM 53.6 °F 53.6 °F 100% 29.92 in - WSW 4.6 mph - N/A   Clear
7:20 AM 57.2 °F 55.4 °F 94% 29.92 in - West 4.6 mph - N/A   Clear
7:50 AM 59.0 °F 55.4 °F 88% 29.95 in - WSW 5.8 mph - N/A   Clear
8:20 AM 59.0 °F 55.4 °F 88% 29.95 in - WSW 5.8 mph - N/A   Clear
8:50 AM 60.8 °F 55.4 °F 82% 29.95 in - WSW 4.6 mph - N/A   Clear
9:20 AM 60.8 °F 53.6 °F 77% 29.95 in 6.2 mi WSW 6.9 mph - N/A   Mostly Cloudy
9:50 AM 62.6 °F 55.4 °F 77% 29.98 in 6.2 mi SW 5.8 mph - N/A   Mostly Cloudy
10:20 AM 64.4 °F 57.2 °F 77% 29.95 in 6.2 mi West 4.6 mph - N/A   Mostly Cloudy
10:50 AM 64.4 °F 55.4 °F 73% 29.95 in 6.2 mi WSW 4.6 mph - N/A   Mostly Cloudy
11:00 AM 64 °F 55 °F 65% 29.97 in 12 mi SW 3.5 mph - -   Scattered Clouds
11:20 AM 64.4 °F 53.6 °F 68% 29.98 in 6.2 mi SW 4.6 mph - N/A   Mostly Cloudy
11:50 AM 64.4 °F 53.6 °F 68% 29.98 in 6.2 mi Variable 3.5 mph - N/A   Mostly Cloudy
12:20 PM 64.4 °F 57.2 °F 77% 29.98 in 6.2 mi SSE 9.2 mph - N/A   Mostly Cloudy
12:50 PM 64.4 °F 55.4 °F 73% 29.98 in 6.2 mi South 6.9 mph - N/A   Mostly Cloudy
1:20 PM 64.4 °F 55.4 °F 73% 29.98 in 6.2 mi South 9.2 mph - N/A   Mostly Cloudy
1:50 PM 64.4 °F 55.4 °F 73% 29.98 in 6.2 mi South 9.2 mph - N/A   Mostly Cloudy
2:00 PM 65 °F 55 °F 62% 29.99 in 12 mi South 9.2 mph - -   Scattered Clouds
2:20 PM 66.2 °F 55.4 °F 68% 29.98 in 6.2 mi South 6.9 mph - N/A   Mostly Cloudy
2:50 PM 66.2 °F 55.4 °F 68% 29.98 in 6.2 mi South 8.1 mph - N/A   Mostly Cloudy
3:20 PM 64.4 °F 53.6 °F 68% 29.98 in 6.2 mi SSW 11.5 mph - N/A   Mostly Cloudy
3:50 PM 64.4 °F 55.4 °F 73% 30.01 in 6.2 mi SSW 8.1 mph - N/A   Mostly Cloudy
4:20 PM 62.6 °F 55.4 °F 77% 29.98 in 6.2 mi South 6.9 mph - N/A   Mostly Cloudy
4:50 PM 64.4 °F 55.4 °F 73% 30.01 in 6.2 mi SSW 6.9 mph - N/A   Mostly Cloudy
5:00 PM 66 °F 54 °F 55% 30.01 in 19 mi SSW 6.9 mph - -   Scattered Clouds
5:20 PM 64.4 °F 53.6 °F 68% 30.01 in 6.2 mi SSW 5.8 mph - N/A   Mostly Cloudy
5:50 PM 64.4 °F 53.6 °F 68% 30.01 in 6.2 mi SW 4.6 mph - N/A   Mostly Cloudy
6:20 PM 66.2 °F 53.6 °F 64% 30.01 in 6.2 mi SW 3.5 mph - N/A   Mostly Cloudy
6:50 PM 64.4 °F 53.6 °F 68% 30.01 in 6.2 mi SW 2.3 mph - N/A   Mostly Cloudy
7:20 PM 64.4 °F 55.4 °F 73% 30.01 in - SW 2.3 mph - N/A   Clear
7:50 PM 62.6 °F 57.2 °F 82% 30.04 in - SW 2.3 mph - N/A   Clear
8:00 PM 63 °F 57 °F 74% 30.04 in 19 mi WSW 2.3 mph - -   Mostly Cloudy
8:20 PM 62.6 °F 55.4 °F 77% 30.04 in - South 1.2 mph - N/A   Clear
8:50 PM 64.4 °F 53.6 °F 68% 30.04 in - NNE 2.3 mph - N/A   Clear
9:20 PM 62.6 °F 53.6 °F 72% 30.04 in - NNE 2.3 mph - N/A   Clear
9:50 PM 62.6 °F 55.4 °F 77% 30.06 in - North 5.8 mph - N/A   Clear
10:20 PM 62.6 °F 55.4 °F 77% 30.06 in - North 5.8 mph - N/A   Clear
10:50 PM 60.8 °F 55.4 °F 82% 30.06 in - North 4.6 mph - N/A   Clear
11:00 PM 60 °F 54 °F 75% 30.09 in 12 mi North 3.5 mph - -   Clear
11:20 PM 60.8 °F 55.4 °F 82% 30.09 in - NNW 4.6 mph - N/A   Clear
11:50 PM 59.0 °F 53.6 °F 82% 30.09 in - North 3.5 mph - N/A   Clear